[[{"header":{"parameterUnit":"m.s-1","parameterCategory":1,"la1":30.2991,"la2":30.254,"lo1":-89.0895,"lo2":-89.0444,"dy":0.0017,"dx":0.0017,"nx":28,"ny":28,"refTime":"2023-09-02T09:00:00:Z","depth":0,"parameterNumber":2,"parameterNumberName":"U-component_of_WINDS"},"data":[0,0,0,0,0,0,0,0,0,0,0,0,0,0,0,0,0,0,0,0,0,0,0,0,0,0,0,0,0,0,0,0,0,0,0,0,0,0,0,0,0,0,0,0,0,0,0,0,0,0,0,0,0,0,0,0,0,0,0.3477,0.3478,0,0.3558,0.3559,0.356,0.3531,0.3529,0.3527,0.3525,0.3616,0.362,0.3624,0,0,0,0,0,0,0,0,0,0,0,0,0,0.3305,0.3308,0.3477,0.3478,0.3479,0.3558,0.3559,0.356,0.3531,0.3529,0.3527,0.3524,0.3614,0.3619,0.3624,0,0,0,0,0,0,0,0,0,0,0,0,0,0.3382,0.3309,0.3477,0.3474,0.3474,0.3558,0.3559,0.356,0.3531,0.3529,0.3526,0.3523,0.3613,0.3619,0.3625,0.3718,0,0,0.3644,0.3646,0,0,0,0,0,0,0,0,0.3378,0.3389,0.3473,0.3474,0.3475,0.3531,0.3531,0.3614,0.3532,0.351,0.3525,0.3522,0.359,0.3598,0.362,0.3722,0.3726,0.3644,0.3648,0.3651,0.3652,0,0,0,0,0,0,0,0.3372,0.3385,0.3509,0.3474,0.3475,0.3471,0.3479,0.3547,0.3565,0.3512,0.351,0.3519,0.359,0.3614,0.3622,0.3728,0.3644,0.365,0.3653,0.3656,0.3914,0.3917,0,0,0,0,0,0,0.3366,0.3381,0.3507,0.3512,0.3418,0.3476,0.3485,0.3516,0.3564,0.3568,0.3522,0.3518,0.3605,0.3614,0.3625,0.3739,0.3651,0.3656,0.366,0.3911,0.3915,0.3918,0,0,0,0,0,0,0.3362,0.3377,0.3503,0.3446,0.3461,0.3482,0.3517,0.3519,0.3542,0.3571,0.3575,0.3542,0.3603,0.3616,0.3695,0.3742,0.3659,0.3665,0.3908,0.3912,0.3917,0.3968,0,0,0,0,0,0,0.3357,0.3376,0.341,0.3446,0.3464,0.357,0.352,0.3523,0.3552,0.3548,0.3591,0.3596,0.3602,0.3686,0.3701,0.3749,0.367,0.3903,0.391,0.3915,0.3963,0.3974,0.3984,0,0,0,0,0,0.3351,0.3422,0.3412,0.3427,0.3507,0.3573,0.3584,0.3587,0.3556,0.3592,0.3611,0.3595,0.3734,0.3695,0.3712,0.3762,0.3901,0.3908,0.3915,0.3958,0.3972,0.3984,0,0,0,0,0,0,0.3393,0.3427,0.3416,0.35,0.3534,0.3568,0.3613,0.3601,0.3646,0.364,0.3644,0.3654,0.3737,0.3757,0.3712,0.3856,0.3813,0.3824,0.384,0.3854,0.3864,0.3859,0.3675,0,0,0,0,0,0.3411,0.346,0.3488,0.356,0.3577,0.3592,0.3621,0.362,0.3656,0.3671,0.3696,0.3733,0.3786,0.3821,0.387,0.3965,0.3976,0.4008,0.4018,0.4027,0.4037,0.4092,0.4107,0.3942,0.3942,0.3942,0,0,0.3451,0.3475,0.3506,0.3569,0.3595,0.3648,0.3604,0.3662,0.3702,0.3681,0.3757,0.3777,0.3819,0.3907,0.3947,0.3927,0.4085,0.4036,0.4043,0.4049,0.4101,0.4116,0.413,0.3947,0.3946,0.3945,0,0,0.3551,0.3573,0.3636,0.3663,0.3702,0.3712,0.3727,0.3763,0.3775,0.3851,0.3837,0.3886,0.3975,0.4007,0.4035,0.4147,0.4136,0.4164,0.4221,0.4274,0.4287,0.4299,0.4342,0.4357,0.4173,0.4173,0.4173,0,0.3596,0.3672,0.3671,0.373,0.3759,0.374,0.3806,0.3832,0.3887,0.3909,0.3884,0.3997,0.4024,0.4121,0.4148,0.417,0.4191,0.416,0.4285,0.4296,0.4307,0.4348,0.4364,0.4177,0.4176,0.4176,0.4176,0,0.3728,0.3781,0.3828,0.3879,0.3914,0.3976,0.3986,0.4022,0.4018,0.4032,0.4111,0.4143,0.42,0.4222,0.422,0.4319,0.4305,0.4283,0.424,0.4326,0.4365,0.4381,0.4181,0.418,0.4179,0.4178,0,0,0.3857,0.3906,0.3923,0.3947,0.3989,0.4032,0.4095,0.4148,0.418,0.4218,0.4273,0.435,0.4329,0.4361,0.4362,0.4408,0.4499,0.438,0.4382,0.4404,0.4614,0.4632,0.465,0.449,0.4493,0.4496,0.4611,0,0.3962,0.4069,0.407,0.417,0.4221,0.4204,0.4259,0.4293,0.4307,0.4355,0.4371,0.4426,0.4394,0.4413,0.4458,0.4478,0.4542,0.447,0.4545,0.4547,0.4537,0.467,0.469,0.4797,0.4626,0.4629,0.463,0,0.4098,0.414,0.4245,0.4281,0.4302,0.4351,0.4402,0.4446,0.4485,0.4492,0.4528,0.4523,0.459,0.4543,0.4638,0.4589,0.4619,0.4634,0.4639,0.4648,0.4596,0.4686,0.4831,0.4848,0.4654,0.4652,0.465,0,0.4185,0.4267,0.4341,0.4362,0.4405,0.444,0.4461,0.4496,0.4529,0.4574,0.4595,0.4648,0.4678,0.472,0.473,0.4694,0.4825,0.4779,0.4836,0.4836,0.4867,0.4865,0.5022,0.4882,0.4882,0.4882,0.4881,0,0.4304,0.437,0.4381,0.4426,0.45,0.4502,0.4576,0.4594,0.4626,0.4677,0.4665,0.4714,0.4723,0.4775,0.4783,0.4862,0.4875,0.4885,0.4887,0.4888,0.4887,0.491,0.4903,0.4886,0.4885,0.4884,0.4883,0,0.4414,0.4424,0.4504,0.4538,0.4548,0.4601,0.4632,0.4678,0.469,0.4755,0.4771,0.4792,0.4852,0.4866,0.4938,0.4944,0.5038,0.5031,0.5024,0.5025,0.5082,0.5078,0.5261,0.5287,0.5128,0.513,0.5131,0,0.449,0.454,0.458,0.4612,0.4633,0.4685,0.4718,0.4722,0.4758,0.4806,0.4847,0.4905,0.4953,0.505,0.5074,0.513,0.5126,0.5187,0.5135,0.5135,0.5131,0.5129,0.5135,0.5198,0.5199,0.5201,0.5202,0,0.4625,0.4628,0.4674,0.4724,0.4763,0.4802,0.484,0.4868,0.4877,0.4918,0.4979,0.5015,0.5088,0.5148,0.5204,0.5228,0.5219,0.5218,0.5234,0.5237,0.5232,0.5238,0.5054,0.5214,0.5213,0.5212,0.5211,0.5211,0.4723,0.4767,0.4802,0.4855,0.4883,0.4919,0.4964,0.4982,0.5031,0.509,0.509,0.5157,0.5197,0.5271,0.5298,0.5352,0.5334,0.5358,0.5364,0.5371,0.5377,0.5221,0.5362,0.5362,0.5362,0.5362,0.5361,0,0.4859,0.4881,0.4929,0.4982,0.5025,0.5008,0.5049,0.5087,0.5145,0.5182,0.5228,0.53,0.5357,0.5385,0.5444,0.5482,0.5479,0.5498,0.5496,0.5503,0.5389,0.537,0.5499,0.5499,0.5499,0.5499,0.5499,0.5499,0.4936,0.501,0.5017,0.5107,0.5129,0.5193,0.5218,0.5252,0.5282,0.5361,0.5408,0.5425,0.5459,0.552,0.5574,0.5581,0.5604,0.5625,0.563,0.5524,0.551,0.5497,0.5479,0.5629,0.563,0.574,0.5741,0.5742]},{"header":{"parameterUnit":"m.s-1","parameterCategory":1,"la1":30.2991,"la2":30.254,"lo1":-89.0895,"lo2":-89.0444,"dy":0.0017,"dx":0.0017,"nx":28,"ny":28,"refTime":"2023-09-02T09:00:00:Z","depth":0,"parameterNumber":3,"parameterNumberName":"V-component_of_WINDS"},"data":[0,0,0,0,0,0,0,0,0,0,0,0,0,0,0,0,0,0,0,0,0,0,0,0,0,0,0,0,0,0,0,0,0,0,0,0,0,0,0,0,0,0,0,0,0,0,0,0,0,0,0,0,0,0,0,0,0,0,-0.5486,-0.5485,0,-0.5366,-0.5364,-0.5363,-0.5385,-0.5387,-0.539,-0.5392,-0.5262,-0.5257,-0.5252,0,0,0,0,0,0,0,0,0,0,0,0,0,-0.5728,-0.5724,-0.5486,-0.5485,-0.5483,-0.5366,-0.5364,-0.5362,-0.5385,-0.5388,-0.539,-0.5393,-0.5264,-0.5258,-0.5251,0,0,0,0,0,0,0,0,0,0,0,0,0,-0.5617,-0.5722,-0.5486,-0.548,-0.5479,-0.5366,-0.5364,-0.5362,-0.5384,-0.5388,-0.5391,-0.5394,-0.5266,-0.5258,-0.525,-0.5135,0,0,-0.5225,-0.5222,0,0,0,0,0,0,0,0,-0.5623,-0.5608,-0.5483,-0.548,-0.5478,-0.5394,-0.5402,-0.5286,-0.5384,-0.542,-0.5392,-0.5395,-0.5303,-0.5292,-0.5262,-0.5128,-0.5123,-0.5224,-0.5219,-0.5216,-0.5214,0,0,0,0,0,0,0,-0.5631,-0.5613,-0.5438,-0.5481,-0.5478,-0.5481,-0.5469,-0.538,-0.5344,-0.5417,-0.5418,-0.5404,-0.5302,-0.527,-0.5259,-0.5121,-0.5225,-0.5217,-0.5212,-0.5209,-0.4882,-0.4879,0,0,0,0,0,0,-0.5642,-0.562,-0.5442,-0.5435,-0.556,-0.5474,-0.5461,-0.5418,-0.5346,-0.5338,-0.5401,-0.5406,-0.5282,-0.5269,-0.5255,-0.5112,-0.5216,-0.5208,-0.5204,-0.4886,-0.4881,-0.4877,0,0,0,0,0,0,-0.5647,-0.5626,-0.5447,-0.5527,-0.5505,-0.5467,-0.5418,-0.5414,-0.5381,-0.5334,-0.5327,-0.5375,-0.5284,-0.5266,-0.5164,-0.5108,-0.5205,-0.5197,-0.489,-0.4885,-0.4879,-0.4827,0,0,0,0,0,0,-0.5654,-0.5627,-0.5585,-0.5526,-0.5501,-0.536,-0.5415,-0.5409,-0.5368,-0.5372,-0.5308,-0.53,-0.5286,-0.5176,-0.5156,-0.5098,-0.5191,-0.4895,-0.4888,-0.4881,-0.4833,-0.482,-0.4809,0,0,0,0,0,-0.5662,-0.5574,-0.5582,-0.5561,-0.5447,-0.5357,-0.5342,-0.5329,-0.5363,-0.5318,-0.5288,-0.5302,-0.5118,-0.5165,-0.5143,-0.5082,-0.4899,-0.489,-0.4882,-0.4839,-0.4823,-0.4809,0,0,0,0,0,0,-0.5625,-0.5566,-0.5575,-0.5466,-0.5416,-0.5361,-0.5304,-0.5313,-0.5251,-0.5257,-0.5242,-0.5227,-0.5122,-0.5092,-0.5146,-0.4964,-0.5013,-0.4999,-0.4988,-0.4972,-0.496,-0.4968,-0.5184,0,0,0,0,0,-0.5605,-0.5539,-0.549,-0.5398,-0.5373,-0.5343,-0.5303,-0.5298,-0.5245,-0.5223,-0.5185,-0.5132,-0.5061,-0.5015,-0.4948,-0.483,-0.4814,-0.4776,-0.4764,-0.4754,-0.4742,-0.4673,-0.4655,-0.485,-0.485,-0.485,0,0,-0.5561,-0.5521,-0.548,-0.539,-0.5351,-0.528,-0.5325,-0.5249,-0.5195,-0.5211,-0.5112,-0.5082,-0.5021,-0.4909,-0.4857,-0.488,-0.4685,-0.4743,-0.4736,-0.4729,-0.4662,-0.4644,-0.4628,-0.4844,-0.4845,-0.4846,0,0,-0.5445,-0.5409,-0.5328,-0.5287,-0.5228,-0.5208,-0.5189,-0.5131,-0.5112,-0.5013,-0.5022,-0.4957,-0.4838,-0.4793,-0.4754,-0.4619,-0.4628,-0.4597,-0.4532,-0.4465,-0.445,-0.4436,-0.4384,-0.4366,-0.4586,-0.4585,-0.4585,0,-0.5397,-0.5293,-0.5284,-0.5206,-0.5165,-0.5178,-0.5093,-0.5054,-0.4974,-0.4944,-0.4972,-0.482,-0.478,-0.4656,-0.4623,-0.4592,-0.4566,-0.4604,-0.4453,-0.4439,-0.4426,-0.4377,-0.4358,-0.4582,-0.4582,-0.4583,-0.4583,0,-0.5236,-0.5164,-0.5104,-0.5029,-0.4981,-0.49,-0.4876,-0.4828,-0.4826,-0.4802,-0.4699,-0.4651,-0.4573,-0.4544,-0.4541,-0.4418,-0.4434,-0.4457,-0.4505,-0.4404,-0.4357,-0.4338,-0.4577,-0.4578,-0.4579,-0.458,0,0,-0.5093,-0.5013,-0.4991,-0.4955,-0.489,-0.4832,-0.4751,-0.4676,-0.4634,-0.4578,-0.4507,-0.4405,-0.4425,-0.4381,-0.4374,-0.4315,-0.4207,-0.4345,-0.4343,-0.4318,-0.4064,-0.4045,-0.4024,-0.4214,-0.421,-0.4207,-0.4068,0,-0.4969,-0.4826,-0.4815,-0.4685,-0.4616,-0.4626,-0.4554,-0.4505,-0.448,-0.4416,-0.4388,-0.4314,-0.4349,-0.4322,-0.4265,-0.4232,-0.4155,-0.4242,-0.4143,-0.414,-0.4156,-0.4,-0.398,-0.3851,-0.405,-0.4047,-0.4045,0,-0.4804,-0.4745,-0.4609,-0.4551,-0.4521,-0.4457,-0.4386,-0.4326,-0.4269,-0.4255,-0.4205,-0.4204,-0.4117,-0.417,-0.4047,-0.4106,-0.4065,-0.4042,-0.4037,-0.4025,-0.4085,-0.398,-0.381,-0.3789,-0.4017,-0.4019,-0.4021,0,-0.471,-0.4596,-0.4499,-0.4468,-0.4399,-0.4353,-0.4322,-0.4268,-0.4223,-0.4161,-0.413,-0.4058,-0.4018,-0.396,-0.3938,-0.398,-0.3815,-0.3867,-0.3798,-0.3798,-0.3761,-0.3763,-0.3578,-0.3739,-0.3739,-0.374,-0.374,0,-0.457,-0.4486,-0.4455,-0.4395,-0.43,-0.4286,-0.4191,-0.4162,-0.4114,-0.4046,-0.405,-0.3986,-0.3963,-0.3894,-0.3877,-0.3775,-0.3758,-0.3741,-0.3737,-0.3739,-0.3741,-0.371,-0.3717,-0.3735,-0.3736,-0.3737,-0.3738,0,-0.4448,-0.4424,-0.4319,-0.4262,-0.4245,-0.4177,-0.4127,-0.4067,-0.4044,-0.3958,-0.3937,-0.3899,-0.3817,-0.3791,-0.3693,-0.3681,-0.3561,-0.3567,-0.3581,-0.358,-0.3511,-0.3516,-0.3298,-0.3267,-0.345,-0.3449,-0.3447,0,-0.4359,-0.4294,-0.423,-0.4186,-0.4153,-0.4082,-0.4036,-0.4019,-0.3971,-0.3899,-0.3848,-0.3768,-0.3703,-0.3572,-0.3533,-0.3457,-0.3459,-0.3387,-0.3447,-0.345,-0.3453,-0.3456,-0.3448,-0.3375,-0.3373,-0.3372,-0.337,0,-0.4203,-0.4194,-0.4129,-0.4058,-0.4004,-0.3947,-0.3892,-0.3855,-0.383,-0.3774,-0.3692,-0.3642,-0.3541,-0.346,-0.3383,-0.3347,-0.3352,-0.3352,-0.3331,-0.3332,-0.3341,-0.3332,-0.3547,-0.3357,-0.3358,-0.3359,-0.336,-0.336,-0.4092,-0.4034,-0.398,-0.3906,-0.3863,-0.3811,-0.3752,-0.3721,-0.3653,-0.3571,-0.3564,-0.3474,-0.3416,-0.3312,-0.3273,-0.32,-0.322,-0.3191,-0.3183,-0.3175,-0.3168,-0.3355,-0.3186,-0.3186,-0.3187,-0.3187,-0.3187,0,-0.3934,-0.3899,-0.3832,-0.3755,-0.3696,-0.3709,-0.3649,-0.3597,-0.3519,-0.3465,-0.3401,-0.3304,-0.3225,-0.3181,-0.3101,-0.3051,-0.3051,-0.303,-0.3032,-0.3023,-0.3157,-0.3181,-0.3031,-0.3031,-0.3031,-0.3031,-0.3031,-0.3031,-0.3844,-0.3746,-0.373,-0.3609,-0.3574,-0.3487,-0.3451,-0.3402,-0.3359,-0.3251,-0.3186,-0.3159,-0.3107,-0.3023,-0.295,-0.2938,-0.2907,-0.2884,-0.2874,-0.2998,-0.3014,-0.3029,-0.3052,-0.2878,-0.2878,-0.2746,-0.2745,-0.2744]}]]